Back to catalog

ARIANE 5 R/B

AliveHEO
NORAD 37811·ROCKET BODY·🇫🇷 France

Launched Sep 21, 2011 from Guiana Space Centre

Loading…

Next Passes (next 24 hours)

TLE

FreshSource: Space-Track

Epoch: Sep 14, 2026, 07:07 UTC

1 37811U 11049C   26257.29676581  .00008236  00000-0  96934-3 0  9994
2 37811   2.6208 102.2328 6881969 241.8835  34.4239  2.81705437136862

Track ARIANE 5 R/B in real time with AllMySat

Download on the App Store